Messwerte Porlamar/ Isla Margarita

Temperatur

Temperatur
°C
1594472400 9.00 9.00 26
1594476000 10.00 10.00 27
1594479600 11.00 11.00
1594483200 12.00 12.00 34
1594486800 13.00 13.00 35
1594490400 14.00 14.00 35
1594494000 15.00 15.00 36
1594497600 16.00 16.00 32
1594501200 17.00 17.00 32
1594504800 18.00 18.00 32
1594508400 19.00 19.00 31
1594512000 20.00 20.00 23
1594515600 21.00 21.00 33
1594519200 22.00 22.00 28
1594522800 23.00 23.00 27
1594526400 0.00 0.00 27
1594530000 1.00 1.00
1594533600 2.00 2.00 20
1594537200 3.00 3.00 31
1594540800 4.00 4.00 26
1594544400 5.00 5.00 26
1594548000 6.00 6.00 26
1594551600 7.00 7.00 26
1594555200 8.00 8.00 31

Aktuellste Messwerte

Wettercharakter
Wetter: recht sonnig
Temperatur
27 °C
Feuchtigkeit
90 %
Wind
20 km/hWindrichtung: Ost
Luftdruck
1014 hPa
Messzeit: 12. Juli 2020, 8.00Datenquelle: METAR

Weitere Messstationen in der Nähe

Messstation Temperatur Entfernung
St. George's / Grenada 29 °C 267 km
Port of Spain / Trinidad 28 °C 289 km
Caracas 21 °C 321 km
Crown Pt./ Scarborou 29 °C 341 km
San Juan de los Morros 23 °C 384 km
Maracay 24 °C 409 km
Hewanorra / St. Lucia 29 °C 454 km

Wind

Windrichtung Böen Mittelwind
° km/h km/h
1594472400 9.00 8.00 - 9.00 120° 15
1594476000 10.00 9.00 - 10.00 100° 20
1594479600 11.00 10.00 - 11.00
1594483200 12.00 11.00 - 12.00 110° 20
1594486800 13.00 12.00 - 13.00 190° 20
1594490400 14.00 13.00 - 14.00 100° 20
1594494000 15.00 14.00 - 15.00 90° 25
1594497600 16.00 15.00 - 16.00 100° 25
1594501200 17.00 16.00 - 17.00 80° 30
1594504800 18.00 17.00 - 18.00 90° 25
1594508400 19.00 18.00 - 19.00 90° 25
1594512000 20.00 19.00 - 20.00 70° 25
1594515600 21.00 20.00 - 21.00 90° 25
1594519200 22.00 21.00 - 22.00 110° 20
1594522800 23.00 22.00 - 23.00 100° 20
1594526400 0.00 23.00 - 0.00 110° 20
1594530000 1.00 0.00 - 1.00
1594533600 2.00 1.00 - 2.00 80° 20
1594537200 3.00 2.00 - 3.00 90° 20
1594540800 4.00 3.00 - 4.00 100° 15
1594544400 5.00 4.00 - 5.00 100° 15
1594548000 6.00 5.00 - 6.00 80° 15
1594551600 7.00 6.00 - 7.00 90° 15
1594555200 8.00 7.00 - 8.00 80° 15

Ihre Wetterstation

Fehlt Ihre Wetterstation auf unserem Portal?

Schreiben Sie an network@meteonews.ch

Klima

Wann ist es am wärmsten? Wann regnet es am wenigsten? Unsere Klimadaten geben Auskunft.